sat.trackr.live / text

‹ back to catalog

O3B FM8

NORAD 40082 · 2014-038D

PAYLOAD ACTIVE UNKNOWN

§ Identity

Operator
Country
O3B
Launch date
2014-07-10
Launch site
FRGUI
Launch vehicle
Mass (kg)
RCS (m²)
3.99

Purposes: comms

External: N2YO · Heavens-Above · Gunter

§ Orbital elements

Epoch: 2026-09-19T11:31:46.277472Z

Period
287.93 min
Inclination
0.0449°
Eccentricity
0.0002761
Mean motion
5.00116204 rev/d
Perigee alt
8,061.9 km
Apogee alt
8,069.9 km
Semi-major
14,444.0 km
B*
0.0000e+0
RAAN
352.5255°
Arg perigee
185.7952°
Mean anomaly
181.6824°
Rev number
22,266

§ Raw data

O3B FM81 40082U 14038D   26262.48039673 -.00000027  00000+0  00000+0 0  99962 40082   0.0449 352.5255 0002761 185.7952 181.6824  5.00116204222660

JSON: /api/v1/satellites/40082 · /tle

For live sub-satellite position, see the globe view (requires WebGL).

§ Visibility from observer

Set your observer location to see the next 7 days of passes ≥ 10°. The values pass through the URL so the page stays shareable.

No JS? Fill the form by hand. The geolocation button needs JavaScript.